SCP
2 2 2 2 2 2 2 2 1 1 1 0 0 1 1 1 1 1 1 1 0 1 1 1 1 1 1 1 0 0 0 1 1 1 1 1 1 0 0 0 0 0 0
2 2 2 2 2 3 2 2 1 1 1 1 1 1 1 1 1 1 1 0 0 1 1 1 1 1 1 1 0 0 0 1 1 1 1 1 1 1 0 1 1 0 0
2 2 2 2 3 3 3 2 1 1 1 1 1 1 1 1 1 1 0 1 1 1 1 1 1 1 1 0 0 0 0 1 1 1 1 0 0 1 1 1 1 1 0
2 2 2 2 3 3 3 2 2 1 1 1 1 1 1 1 1 1 1 1 1 1 1 1 1 1 1 0 0 0 0 1 1 1 1 0 0 1 1 1 1 1 1
2 2 2 2 3 3 3 3 2 2 1 1 1 1 1 1 1 0 0 1 1 1 1 1 1 1 0 0 0 0 0 1 1 1 0 0 0 1 1 1 1 1 1
2 2 2 3 3 3 3 3 2 2 2 1 1 1 1 1 0 0 0 1 1 1 1 1 1 1 1 1 1 0 0 1 1 1 0 0 0 1 1 1 1 1 1
3 3 3 3 3 3 4 3 3 2 2 1 1 1 1 1 1 1 1 1 1 1 1 1 1 1 1 1 1 1 0 1 1 1 0 0 0 1 1 1 1 1 1
3 3 3 3 3 3 4 3 3 3 2 2 1 1 1 1 1 1 1 1 1 1 1 1 1 1 1 1 1 0 0 0 1 1 1 0 0 1 1 1 1 1 1
3 4 3 3 3 3 4 3 3 3 2 2 1 1 1 1 1 1 1 1 1 1 1 1 1 1 1 1 0 0 0 0 1 1 1 0 0 1 1 1 1 1 1
4 4 4 3 2 3 3 3 3 3 2 2 2 1 1 1 1 1 1 1 1 1 1 1 1 1 1 0 0 0 0 0 0 1 0 0 0 1 1 1 1 1 1
4 4 4 2 2 3 3 3 3 2 2 2 2 1 1 1 1 1 1 1 1 1 1 1 1 1 0 0 0 0 0 0 0 0 0 0 0 1 1 1 1 1 1
4 4 4 3 2 3 3 3 3 3 2 2 1 1 1 1 1 1 1 1 1 1 1 1 1 0 0 0 0 0 0 0 0 0 0 0 0 1 1 1 1 1 1
3 3 3 3 2 3 4 4 3 3 2 2 1 1 1 1 1 1 1 1 1 1 1 0 0 0 0 0 0 0 0 0 0 0 0 0 0 1 1 1 2 1 1
2 2 2 2 3 4 4 4 4 3 3 2 2 2 1 1 1 2 2 1 1 1 0 0 0 0 0 0 0 0 0 0 0 0 0 0 0 1 1 1 2 1 1
2 2 2 2 3 4 4 4 4 4 3 2 2 2 2 2 2 2 2 1 1 0 0 0 0 0 0 0 0 0 0 0 0 0 0 0 0 1 1 1 1 2 1
2 2 2 3 3 4 4 4 4 4 4 3 3 3 3 3 2 2 1 1 0 0 0 0 0 0 0 0 0 0 0 0 0 0 0 0 0 0 1 1 2 2 2
2 2 3 3 3 3 4 4 5 5 4 4 4 3 3 3 2 1 0 0 0 0 0 0 0 0 0 0 0 0 0 0 0 0 0 0 0 0 1 1 2 2 2
2 2 3 3 3 3 3 4 5 5 5 4 4 3 3 2 1 0 0 0 0 0 0 0 0 0 0 0 0 0 0 0 0 0 0 0 0 0 0 1 2 2 2
2 2 3 3 2 2 3 3 3 3 3 3 3 2 1 1 0 0 0 0 0 0 0 0 0 0 0 0 0 0 0 0 0 0 0 0 0 0 0 1 1 2 2
1 2 2 2 2 1 2 2 1 1 1 1 1 1 0 0 0 0 0 0 0 0 0 0 0 0 0 0 0 0 0 0 0 0 0 0 0 0 0 0 1 1 1
1 2 2 1 1 1 1 0 0 0 0 0 0 0 0 0 0 0 0 0 0 0 0 0 0 0 0 0 0 0 0 0 0 0 0 0 0 0 0 0 0 0 0
1 1 1 1 0 0 0 0 0 0 0 0 0 0 0 0 0 0 0 0 0 0 0 0 0 0 0 0 0 0 0 0 0 0 0 0 0 0 0 0 0 0 0
1 1 1 0 0 0 0 0 0 0 0 0 0 0 0 0 0 0 0 0 0 0 0 0 0 0 0 0 0 0 0 0 0 0 0 0 0 0 0 0 0 0 0
1 0 0 0 0 0 0 0 0 0 0 0 0 0 0 0 0 0 0 0 0 0 0 0 0 0 0 0 0 0 0 0 0 0 0 0 0 0 0 0 0 0 0
0 0 0 0 0 0 0 0 0 0 0 0 0 0 0 0 0 0 0 0 0 0 0 0 0 0 0 0 0 0 0 0 0 0 0 0 0 0 0 0 0 0 0
0 0 0 0 0 0 0 0 0 0 0 0 0 0 0 0 0 0 0 0 0 0 0 0 0 0 0 0 0 0 0 0 0 0 0 0 0 0 0 0 0 0 0
Wind_Speed
6 7 8 8 9 10 10 10 11 11 12 12 12 13 13 14 13 13 13 13 14 14 15 14 14 15 15 15 14 14 13 14 14 13 13 13 13 13 14 13 12 9 14
9 8 9 9 9 10 10 11 11 12 12 12 12 12 13 13 14 13 13 13 14 14 15 15 15 14 14 14 14 13 13 12 12 11 11 11 12 13 14 14 12 9 14
9 9 8 9 10 10 11 11 11 11 11 12 12 12 13 13 14 14 13 14 14 14 15 15 16 15 14 14 13 13 13 12 11 10 9 6 8 12 13 13 12 13 13
9 8 8 10 10 11 11 11 11 11 11 11 12 12 13 13 13 14 14 14 14 14 15 15 15 15 14 13 13 13 13 12 11 10 6 6 6 11 12 12 12 12 13
9 8 9 10 11 11 10 10 10 11 11 11 12 12 12 13 13 14 14 14 14 14 14 15 15 15 14 13 13 13 13 13 12 9 6 6 6 11 12 12 12 12 13
8 8 9 10 11 11 10 10 10 11 11 12 12 12 13 12 13 13 14 14 14 14 14 14 14 15 14 14 13 13 13 13 10 7 7 7 6 11 12 12 12 12 12
8 8 8 10 11 11 11 10 11 11 11 12 12 12 12 12 13 13 14 13 14 14 14 14 14 14 14 14 14 13 13 12 8 7 7 6 8 12 13 12 12 12 12
8 8 8 10 11 11 11 11 11 11 11 11 12 12 12 12 12 13 13 13 13 14 14 14 14 14 14 13 13 13 13 11 8 8 7 7 11 13 13 12 12 12 12
7 7 6 6 8 10 10 11 11 11 11 11 12 12 12 12 12 13 13 13 13 13 13 13 13 13 13 13 13 13 12 12 7 5 7 6 11 13 13 13 12 12 12
6 6 6 6 6 6 7 10 11 10 11 11 11 11 11 11 11 12 11 12 12 12 12 12 12 12 11 12 11 11 11 9 6 6 5 7 13 12 12 12 12 10 10
6 5 6 6 6 5 5 8 8 9 9 9 8 9 8 5 5 7 9 11 12 12 12 11 11 11 10 9 10 10 8 4 5 5 4 10 12 11 11 11 11 11 10
6 5 5 5 5 5 5 5 3 4 4 4 4 4 3 4 4 6 9 10 11 11 10 10 10 9 6 3 5 7 4 5 4 4 5 11 11 11 10 10 10 10 10
7 6 5 5 5 4 4 3 2 2 2 3 4 4 3 3 3 3 3 4 5 6 5 6 5 4 4 4 3 3 4 4 3 3 5 10 10 10 10 10 9 8 9
7 7 6 5 5 4 4 3 3 2 2 2 2 3 3 2 3 3 2 3 3 2 3 3 3 4 5 5 4 4 4 3 3 3 5 10 10 9 9 9 8 8 7
8 7 6 5 5 4 4 3 3 3 3 3 2 3 3 2 2 2 2 3 3 2 3 3 3 4 4 5 4 4 4 4 3 3 3 9 9 9 8 8 8 8 7
8 8 7 6 5 5 4 3 3 3 3 3 3 3 3 3 2 2 3 3 3 3 2 2 3 3 3 3 4 4 4 3 3 4 3 5 8 9 8 8 8 8 8
9 8 8 7 6 6 5 4 3 3 3 3 3 3 4 4 3 3 2 2 2 2 3 2 3 3 3 3 4 4 3 3 3 3 3 3 3 7 8 8 7 8 8
9 9 8 7 7 6 5 4 3 3 3 3 3 3 4 4 3 3 2 2 2 2 2 2 2 3 3 3 3 3 2 2 3 3 3 3 3 3 5 7 7 8 8
9 9 9 8 7 6 6 4 4 4 3 3 3 3 3 3 3 3 2 2 2 2 2 3 3 2 2 3 3 2 2 2 2 3 3 3 3 3 2 5 7 8 8
8 9 9 8 8 7 5 4 4 4 3 3 3 3 3 2 3 3 2 2 2 2 2 3 3 3 2 2 2 3 2 1 1 2 3 2 3 3 3 3 3 5 7
8 9 9 9 8 7 5 4 4 3 3 2 2 3 3 3 3 3 2 2 2 2 2 2 2 3 2 2 2 2 2 2 2 2 2 2 3 3 3 3 3 3 3
9 9 9 9 8 7 5 4 3 4 3 3 2 3 3 3 3 3 3 2 2 2 2 2 2 2 2 3 2 1 1 2 3 3 2 2 3 3 3 4 3 3 3
8 9 8 8 8 7 7 5 5 4 3 2 2 2 2 3 3 3 3 2 2 2 2 2 2 2 1 2 2 1 1 1 2 2 2 3 3 3 2 2 3 4 4
8 7 8 8 7 7 7 7 7 6 5 3 3 3 3 3 3 3 3 3 2 2 2 2 2 2 1 1 2 2 1 0 0 2 2 2 3 3 3 3 3 3 3
8 8 7 8 7 7 6 6 6 5 4 4 4 4 3 3 3 3 3 3 2 2 2 2 2 2 1 1 1 1 2 2 1 1 2 2 3 2 2 2 2 3 2
7 7 7 8 7 7 6 6 6 7 6 6 5 4 3 2 2 3 3 3 2 2 2 2 2 2 1 2 1 1 1 1 1 1 1 2 3 3 3 2 2 2 2
Wind_Direction
112 118 109 99 92 85 79 73 72 69 64 61 59 58 57 55 56 56 56 57 57 58 59 60 60 61 61 60 60 59 60 63 64 63 61 62 65 67 67 67 67 66 70
118 120 110 103 97 90 85 78 74 72 68 64 61 60 59 58 57 57 57 57 58 58 59 59 59 60 60 58 58 58 59 61 62 61 61 60 61 65 66 65 67 70 71
116 119 117 106 99 94 88 82 77 74 71 67 63 62 60 58 57 57 58 58 58 58 58 58 57 57 59 57 57 56 55 54 56 57 58 61 63 65 68 67 68 72 73
115 118 117 109 103 97 92 87 82 77 73 69 65 63 62 60 57 57 58 58 59 59 58 58 57 55 57 58 56 53 49 48 47 51 53 55 60 70 70 69 69 73 73
112 115 115 110 106 101 95 90 85 80 75 70 67 64 65 62 58 57 57 58 58 59 59 58 57 55 55 56 55 51 46 46 46 47 48 52 54 70 69 67 68 71 72
110 111 117 111 108 102 96 92 88 83 77 72 68 66 65 63 60 59 57 56 58 59 59 59 58 56 54 51 49 48 43 40 42 44 46 50 55 67 69 67 67 69 72
111 110 119 114 109 103 98 92 88 85 80 75 70 67 65 63 61 59 57 56 57 58 59 58 58 55 52 50 47 43 40 37 47 47 46 47 55 65 68 67 68 68 69
111 114 120 115 108 104 100 94 88 85 81 76 71 67 64 61 60 59 58 58 58 58 57 57 56 55 51 48 46 40 36 36 44 47 47 47 55 61 64 65 66 68 68
105 111 114 116 110 105 101 95 90 84 80 76 72 68 64 61 59 58 56 56 57 57 55 54 54 53 51 49 45 40 36 36 37 40 49 49 52 58 60 61 62 64 64
105 108 111 110 106 104 103 94 88 84 79 75 71 66 61 58 55 54 53 53 56 55 54 52 52 53 50 46 42 37 35 33 36 38 41 48 50 52 56 59 59 61 64
110 107 108 108 105 104 105 99 91 84 79 75 68 61 58 54 53 49 48 52 53 52 52 51 51 50 46 39 37 39 36 34 38 38 39 49 50 51 53 56 57 56 60
133 119 111 111 110 110 106 102 99 91 84 75 71 60 53 53 54 56 51 52 49 47 45 43 43 41 35 23 30 37 39 35 36 35 42 48 49 49 49 52 53 54 55
140 128 118 117 115 112 110 109 100 93 84 75 71 64 63 62 59 56 56 52 45 40 33 27 22 21 22 19 27 31 38 39 35 33 42 46 45 47 46 47 50 51 52
147 139 130 126 126 119 114 111 105 97 87 80 74 68 66 60 54 51 48 41 38 30 23 20 15 22 24 22 25 31 36 40 41 37 42 45 42 41 41 42 46 46 49
151 146 140 135 133 124 115 114 105 102 97 88 77 70 69 68 62 55 52 42 36 30 28 21 22 23 23 20 24 29 28 32 38 43 41 44 38 36 35 36 40 42 44
159 153 145 143 139 126 120 114 113 110 104 93 83 76 71 72 67 60 55 45 38 28 23 26 31 24 20 20 22 21 24 21 32 39 40 39 37 35 34 34 35 35 35
162 154 151 150 138 130 125 118 110 107 102 96 85 77 71 69 63 58 58 46 37 27 24 33 34 31 27 26 20 13 21 22 27 34 37 34 34 32 29 30 30 31 31
159 156 155 153 143 137 128 120 115 110 103 98 92 83 76 72 67 60 60 50 34 30 28 33 41 37 26 19 9 1 5 13 23 39 40 34 42 32 23 30 29 29 29
161 157 155 151 146 139 129 118 111 104 97 96 97 92 84 78 75 70 65 60 41 40 33 28 37 37 33 19 4 0 355 3 15 49 50 38 45 45 25 26 24 23 24
156 155 154 150 145 138 130 119 109 98 92 90 93 94 90 82 80 76 74 64 52 55 45 39 35 33 33 16 11 6 347 360 29 55 56 43 37 40 31 27 19 13 17
155 157 158 157 152 145 144 143 136 130 119 105 99 97 95 89 83 85 81 73 60 56 56 55 49 42 29 21 25 3 356 19 54 55 49 45 35 37 32 32 31 23 8
163 162 161 160 156 154 149 143 135 130 121 115 106 98 98 92 85 91 88 83 77 74 65 58 56 44 26 19 21 3 4 360 17 23 23 39 34 35 25 23 29 27 20
163 165 163 159 157 153 143 132 128 115 112 111 117 113 105 100 89 87 90 82 76 77 83 61 52 60 44 4 24 45 57 333 321 325 5 36 31 22 6 12 21 26 22
163 154 152 151 150 147 145 148 152 154 155 151 142 129 120 111 100 89 87 87 85 78 79 62 45 37 53 12 2 16 33 56 1 320 319 8 16 12 3 3 8 16 21
152 149 151 149 149 147 148 152 152 146 138 132 133 131 123 112 105 101 96 91 86 81 79 65 52 39 42 37 14 355 0 3 4 282 296 334 348 341 342 354 2 358 8
141 143 148 151 151 151 151 151 152 149 144 144 144 142 134 123 115 106 101 98 96 93 92 86 75 52 38 34 20 23 20 7 342 340 318 321 315 310 323 333 350 347 343